Find Starlink 34713

NORAD ID: 64906 Int'l Des: 2025-157 Owner: SPXS Country: US Constellation: starlink operational
LEOCIRCULAR

Current View

Loading 3D Globe...

About Starlink 34713

Starlink 34713 (NORAD 64906) is a starlink constellation satellite (v2 mini) launched Jul 26, 2025 by SPXS of US. It operates in LEO, CIRCULAR orbit with a mass of 575.00 kg.

Upcoming Passes

Passes for default location (London). Set your location on the main map for personalized predictions.

Altitude History

Loading altitude history...

Two-Line Element Set

1 64906U 25157C 26262.27552189 .00015120 00000-0 45758-3 0 9993
2 64906 53.1566 163.5777 0000932 102.4947 257.6160 15.34410286 65754
Epoch: Sep 19, 2026 • Age: 36 hours

Current Status

Altitude 481.0 km
Apogee / Perigee N/A
Velocity 7.62 km/s
Sub-Earth Point -51.44°S, 174.31°E
Launch Date Jul 26, 2025
Age 1.1 years
Type internet

Technical Details

Classification Payload
Mass 575.00 kg
Dry Mass 530.00 kg
Length 0.30 m
Span 29.00 m
Shape ? Box + pan
Manufacturer SPXS
Bus Type Starlink V2MO
Phase Status In Orbit
Owner/State SPXS/US

Most Searched